Date String (YYYY-MM-DD hh:mm:ss) UTC,Instrument flags,absolute air pressure of the measurement (hPa),sample flow rate (lpm),inlet stack bypass flow (lpm),air temperature of the measurement (°C),ambient temperature measured by the external sensor (°C),aerosol sample conditioner tube jacket temperature (°C),OPC LED temperature (°C),internal box temperature (°C),relative humidity of the measurement (%),span deviation,mass concentration of particles derived from Lorenz-Mie calculation of OPC scattering (μg/m³),mass concentration of particles derived from Lorenz-Mie calculation of OPC scattering (μg/m³),mass concentration of particles derived from Lorenz-Mie calculation of OPC scattering (μg/m³)
DateTimeUTC,F1_M11,P_M11,Q1_M11,Q2_M11,T1_M11,T2_M11,T3_M11,T4_M11,T5_M11,U1_M11,ZSPAN_M11,X2_M11,X0_M11,X1_M11
2024-03-08 18:00:00,SystemResetWarning,0832.9,5.00,000.00,018.3,017.6,000.0,026.9,020.1,20.3,0000.0,0004.07,0005.33,0003.96
2024-03-08 18:01:00,SystemResetWarning,0833.1,5.00,000.00,018.3,017.6,000.0,026.9,020.1,19.8,0000.0,0004.07,0005.32,0003.96
2024-03-08 18:02:00,SystemResetWarning,0833.1,5.00,000.00,018.3,017.6,000.0,026.9,020.0,19.8,0000.0,0004.08,0005.37,0003.96
2024-03-08 18:03:00,SystemResetWarning,0833.0,5.01,000.00,018.3,017.6,000.0,026.9,020.1,20.0,0000.0,0004.07,0005.22,0003.96
2024-03-08 18:04:00,SystemResetWarning,0833.2,5.00,000.00,018.3,018.1,000.0,027.0,020.4,19.8,0000.0,0004.06,0005.20,0003.96
2024-03-08 18:05:00,SystemResetWarning,0833.0,5.00,000.00,018.6,019.1,000.0,027.1,021.0,19.5,0000.0,0004.07,0005.23,0003.96
2024-03-08 18:06:00,SystemResetWarning,0832.9,5.00,000.00,018.8,019.3,000.0,027.1,021.1,19.4,0000.0,0004.07,0005.19,0003.97
2024-03-08 18:07:00,SystemResetWarning,0833.1,4.99,000.00,018.8,019.1,000.0,027.1,021.0,19.2,0000.0,0004.07,0005.17,0003.97
2024-03-08 18:08:00,SystemResetWarning,0833.3,4.99,000.00,018.8,018.9,000.0,027.1,020.8,19.0,0000.0,0004.07,0005.13,0003.97
2024-03-08 18:09:00,SystemResetWarning,0833.3,5.01,000.00,018.8,018.7,000.0,027.1,020.7,19.2,0000.0,0004.05,0005.08,0003.96
2024-03-08 18:10:00,SystemResetWarning,0833.4,5.01,000.00,018.8,018.5,000.0,027.1,020.6,19.2,0000.0,0004.05,0005.12,0003.95
2024-03-08 18:11:00,SystemResetWarning,0832.8,5.01,000.00,018.8,018.3,000.0,027.1,020.5,19.3,0000.0,0004.03,0005.03,0003.94
2024-03-08 18:12:00,SystemResetWarning,0832.8,4.99,000.00,018.7,018.2,000.0,027.2,020.5,19.3,0000.0,0004.04,0005.05,0003.96
2024-03-08 18:13:00,SystemResetWarning,0832.8,5.00,000.00,018.7,018.2,000.0,027.2,020.5,19.4,0000.0,0004.05,0005.04,0003.97
2024-03-08 18:14:00,SystemResetWarning,0832.8,5.00,000.00,018.7,018.1,000.0,027.2,020.5,19.5,0000.0,0004.07,0005.08,0003.98
2024-03-08 18:15:00,SystemResetWarning,0832.8,4.99,000.00,018.7,018.0,000.0,027.2,020.4,19.5,0000.0,0004.08,0005.10,0004.00
2024-03-08 18:16:00,SystemResetWarning,0832.8,5.00,000.00,018.6,018.0,000.0,027.2,020.4,19.7,0000.0,0004.11,0005.11,0004.03
2024-03-08 18:17:00,SystemResetWarning,0832.8,5.02,000.00,018.6,018.0,000.0,027.2,020.4,19.7,0000.0,0004.13,0005.14,0004.06
2024-03-08 18:18:00,SystemResetWarning,0832.8,5.01,000.00,018.6,017.9,000.0,027.2,020.3,19.9,0000.0,0004.15,0005.17,0004.09
2024-03-08 18:19:00,SystemResetWarning,0832.8,5.00,000.00,018.6,017.9,000.0,027.2,020.3,19.7,0000.0,0004.18,0005.22,0004.11
2024-03-08 18:20:00,SystemResetWarning,0832.8,4.99,000.00,018.6,017.8,000.0,027.2,020.3,19.8,0000.0,0004.20,0005.30,0004.13
2024-03-08 18:21:00,SystemResetWarning,0832.8,4.99,000.00,018.5,017.8,000.0,027.2,020.3,20.0,0000.0,0004.23,0005.34,0004.16
2024-03-08 18:22:00,SystemResetWarning,0832.8,5.00,000.00,018.5,017.8,000.0,027.1,020.2,20.1,0000.0,0004.28,0005.52,0004.20
2024-03-08 18:23:00,SystemResetWarning,0832.8,5.00,000.00,018.5,017.7,000.0,027.1,020.2,20.2,0000.0,0004.34,0005.63,0004.26
2024-03-08 18:24:00,SystemResetWarning,0832.8,5.01,000.00,018.5,017.7,000.0,027.1,020.2,19.9,0000.0,0004.42,0005.77,0004.34
2024-03-08 18:25:00,SystemResetWarning,0832.8,5.00,000.00,018.5,017.7,000.0,027.1,020.2,19.7,0000.0,0004.52,0005.97,0004.44
2024-03-08 18:26:00,SystemResetWarning,0832.8,5.00,000.00,018.4,017.7,000.0,027.1,020.2,19.9,0000.0,0004.62,0006.18,0004.54
2024-03-08 18:27:00,SystemResetWarning,0832.8,5.00,000.00,018.4,017.7,000.0,027.1,020.2,20.7,0000.0,0004.74,0006.45,0004.66
2024-03-08 18:28:00,SystemResetWarning,0832.8,5.00,000.00,018.4,017.7,000.0,027.1,020.2,20.5,0000.0,0004.87,0006.77,0004.76
2024-03-08 18:29:00,SystemResetWarning,0832.8,5.01,000.00,018.4,017.7,000.0,027.1,020.2,20.4,0000.0,0005.00,0007.12,0004.86
2024-03-08 18:30:00,SystemResetWarning,0832.8,5.00,000.00,018.4,017.6,000.0,027.1,020.1,20.2,0000.0,0005.10,0007.30,0004.96
2024-03-08 18:31:00,SystemResetWarning,0832.9,5.00,000.00,018.4,017.6,000.0,027.0,020.1,20.3,0000.0,0005.21,0007.41,0005.07
2024-03-08 18:32:00,SystemResetWarning,0832.8,5.00,000.00,018.4,017.6,000.0,027.0,020.1,20.2,0000.0,0005.32,0007.50,0005.19
2024-03-08 18:33:00,SystemResetWarning,0832.8,5.00,000.00,018.4,017.6,000.0,027.0,020.1,20.3,0000.0,0005.40,0007.56,0005.28
2024-03-08 18:34:00,SystemResetWarning,0832.8,5.00,000.00,018.4,017.6,000.0,027.0,020.1,20.6,0000.0,0005.52,0007.71,0005.39
2024-03-08 18:35:00,SystemResetWarning,0832.8,5.00,000.00,018.3,017.6,000.0,027.0,020.1,20.9,0000.0,0005.62,0007.83,0005.48
2024-03-08 18:36:00,SystemResetWarning,0832.8,5.00,000.00,018.3,017.6,000.0,027.0,020.1,21.3,0000.0,0005.72,0007.95,0005.58
2024-03-08 18:37:00,SystemResetWarning,0832.8,5.00,000.00,018.3,017.6,000.0,027.0,020.1,21.0,0000.0,0005.82,0008.07,0005.67
2024-03-08 18:38:00,SystemResetWarning,0832.7,5.00,000.00,018.3,017.6,000.0,027.0,020.1,20.7,0000.0,0005.91,0008.17,0005.75
2024-03-08 18:39:00,SystemResetWarning,0832.7,5.00,000.00,018.3,017.6,000.0,027.0,020.1,20.7,0000.0,0005.97,0008.24,0005.83
2024-03-08 18:40:00,SystemResetWarning,0832.7,5.00,000.00,018.3,017.7,000.0,027.0,020.1,20.6,0000.0,0006.03,0008.28,0005.92
2024-03-08 18:41:00,SystemResetWarning,0832.7,5.01,000.00,018.3,017.7,000.0,026.9,020.1,20.4,0000.0,0006.12,0008.37,0006.00
2024-03-08 18:42:00,SystemResetWarning,0832.7,5.00,000.00,018.3,017.7,000.0,026.9,020.1,20.6,0000.0,0006.21,0008.47,0006.10
2024-03-08 18:43:00,SystemResetWarning,0832.7,5.00,000.00,018.3,017.7,000.0,026.9,020.1,20.7,0000.0,0006.31,0008.59,0006.20
2024-03-08 18:44:00,SystemResetWarning,0832.7,5.00,000.00,018.3,017.7,000.0,026.9,020.1,20.8,0000.0,0006.42,0008.73,0006.31
2024-03-08 18:45:00,SystemResetWarning,0832.7,5.00,000.00,018.3,017.7,000.0,026.9,020.1,20.0,0000.0,0006.50,0008.80,0006.39
2024-03-08 18:46:00,SystemResetWarning,0832.6,4.99,000.00,018.3,017.7,000.0,026.9,020.1,19.4,0000.0,0006.56,0008.91,0006.45
2024-03-08 18:47:00,SystemResetWarning,0832.7,4.99,000.00,018.3,017.7,000.0,026.9,020.1,19.2,0000.0,0006.62,0009.94,0006.50
2024-03-08 18:48:00,SystemResetWarning,0832.7,4.99,000.00,018.3,017.7,000.0,026.9,020.1,19.6,0000.0,0006.68,0010.00,0006.56
2024-03-08 18:49:00,SystemResetWarning,0832.7,5.00,000.00,018.3,017.7,000.0,026.9,020.1,19.9,0000.0,0006.72,0010.03,0006.61
2024-03-08 18:50:00,SystemResetWarning,0832.7,5.01,000.00,018.3,017.8,000.0,026.9,020.1,19.6,0000.0,0006.77,0010.06,0006.66
2024-03-08 18:51:00,SystemResetWarning,0832.7,5.01,000.00,018.3,017.8,000.0,026.9,020.1,19.3,0000.0,0006.80,0010.07,0006.69
2024-03-08 18:52:00,SystemResetWarning,0832.7,5.01,000.00,018.3,017.8,000.0,026.9,020.1,19.3,0000.0,0006.85,0010.11,0006.74
2024-03-08 18:53:00,SystemResetWarning,0832.7,4.99,000.00,018.3,017.8,000.0,026.9,020.1,19.4,0000.0,0006.89,0010.15,0006.78
2024-03-08 18:54:00,SystemResetWarning,0832.7,4.99,000.00,018.3,017.8,000.0,026.9,020.1,19.2,0000.0,0006.91,0010.18,0006.81
2024-03-08 18:55:00,SystemResetWarning,0832.7,5.02,000.00,018.3,017.8,000.0,026.9,020.1,19.1,0000.0,0006.91,0010.17,0006.82
2024-03-08 18:56:00,SystemResetWarning,0832.7,4.99,000.00,018.3,017.8,000.0,026.9,020.1,19.2,0000.0,0006.93,0010.16,0006.84
2024-03-08 18:57:00,SystemResetWarning,0832.6,4.99,000.00,018.3,017.8,000.0,026.9,020.1,19.7,0000.0,0006.95,0010.13,0006.86
2024-03-08 18:58:00,SystemResetWarning,0832.7,4.99,000.00,018.3,017.8,000.0,026.9,020.1,19.5,0000.0,0006.93,0009.32,0006.86
2024-03-08 18:59:00,SystemResetWarning,0832.6,5.01,000.00,018.3,017.8,000.0,026.9,020.1,19.3,0000.0,0006.92,0009.30,0006.86
